GFSNW_prec_prec_234.txt.gz
QPF
0.00 0.00 0.01 0.02 0.02 0.00 0.00 0.01 0.01 0.01 0.06 0.13 0.16 0.08 0.01 0.00 0.00 0.00 0.00 0.00 0.00 0.00 0.00 0.00 0.00 0.00 0.02 0.07 0.08 0.11 0.29 0.50 0.17 0.04 0.02 0.04 0.02 0.04 0.09 0.04 0.01 0.00 0.00 0.00
0.00 0.00 0.01 0.01 0.01 0.00 0.03 0.02 0.01 0.00 0.06 0.05 0.03 0.03 0.04 0.02 0.00 0.00 0.00 0.00 0.00 0.00 0.00 0.00 0.00 0.00 0.00 0.00 0.02 0.02 0.03 0.27 0.35 0.10 0.03 0.07 0.17 0.11 0.07 0.04 0.02 0.00 0.00 0.00
0.00 0.01 0.01 0.01 0.00 0.01 0.04 0.03 0.01 0.00 0.03 0.07 0.08 0.07 0.06 0.07 0.02 0.01 0.00 0.00 0.00 0.00 0.00 0.00 0.00 0.00 0.00 0.00 0.00 0.01 0.02 0.06 0.16 0.21 0.20 0.13 0.12 0.17 0.22 0.15 0.06 0.02 0.00 0.00
0.01 0.02 0.02 0.00 0.00 0.01 0.04 0.02 0.01 0.01 0.01 0.02 0.07 0.08 0.07 0.03 0.04 0.03 0.01 0.02 0.01 0.00 0.00 0.00 0.00 0.00 0.00 0.00 0.00 0.01 0.08 0.13 0.11 0.15 0.11 0.11 0.11 0.13 0.16 0.23 0.17 0.06 0.00 0.00
0.02 0.03 0.03 0.02 0.01 0.01 0.04 0.02 0.01 0.01 0.01 0.00 0.01 0.01 0.02 0.04 0.04 0.05 0.04 0.03 0.01 0.00 0.01 0.01 0.00 0.00 0.00 0.00 0.00 0.00 0.01 0.01 0.00 0.02 0.00 0.00 0.01 0.02 0.05 0.11 0.16 0.10 0.01 0.00
0.02 0.03 0.03 0.01 0.01 0.04 0.02 0.01 0.01 0.07 0.02 0.01 0.03 0.03 0.03 0.02 0.01 0.03 0.03 0.02 0.01 0.01 0.02 0.01 0.00 0.00 0.00 0.00 0.00 0.00 0.00 0.00 0.00 0.00 0.00 0.00 0.01 0.00 0.00 0.00 0.02 0.05 0.02 0.00
0.03 0.02 0.01 0.01 0.02 0.04 0.04 0.01 0.04 0.07 0.04 0.01 0.00 0.00 0.00 0.00 0.00 0.01 0.00 0.00 0.01 0.01 0.00 0.01 0.01 0.00 0.00 0.00 0.00 0.00 0.00 0.00 0.00 0.00 0.01 0.03 0.01 0.00 0.00 0.00 0.00 0.01 0.03 0.00
0.01 0.02 0.02 0.03 0.05 0.05 0.05 0.03 0.06 0.09 0.08 0.02 0.01 0.00 0.00 0.00 0.00 0.00 0.00 0.00 0.00 0.00 0.02 0.15 0.11 0.03 0.02 0.00 0.00 0.00 0.00 0.00 0.00 0.01 0.00 0.00 0.00 0.00 0.00 0.00 0.00 0.00 0.00 0.00
0.01 0.02 0.01 0.01 0.02 0.03 0.08 0.05 0.08 0.09 0.11 0.02 0.00 0.01 0.01 0.00 0.00 0.01 0.00 0.00 0.00 0.00 0.16 0.22 0.10 0.02 0.00 0.00 0.00 0.00 0.00 0.00 0.01 0.01 0.01 0.00 0.00 0.00 0.00 0.00 0.00 0.00 0.00 0.00
0.00 0.00 0.00 0.01 0.04 0.07 0.07 0.05 0.06 0.09 0.10 0.01 0.01 0.01 0.01 0.01 0.02 0.03 0.00 0.01 0.01 0.04 0.24 0.18 0.04 0.01 0.00 0.00 0.00 0.00 0.00 0.02 0.03 0.01 0.01 0.00 0.00 0.00 0.00 0.00 0.00 0.00 0.00 0.00
0.00 0.00 0.00 0.01 0.01 0.03 0.03 0.02 0.03 0.06 0.10 0.05 0.01 0.01 0.02 0.02 0.04 0.09 0.04 0.09 0.04 0.05 0.15 0.10 0.03 0.01 0.00 0.00 0.00 0.00 0.00 0.01 0.01 0.01 0.03 0.02 0.00 0.00 0.00 0.00 0.00 0.00 0.00 0.00
0.01 0.01 0.00 0.00 0.01 0.01 0.03 0.03 0.01 0.05 0.20 0.18 0.01 0.00 0.00 0.00 0.01 0.04 0.08 0.09 0.05 0.07 0.08 0.05 0.02 0.01 0.00 0.00 0.00 0.00 0.00 0.00 0.00 0.00 0.01 0.00 0.00 0.00 0.00 0.00 0.00 0.00 0.00 0.00
0.00 0.00 0.01 0.01 0.00 0.01 0.02 0.03 0.02 0.09 0.26 0.14 0.02 0.00 0.00 0.00 0.00 0.01 0.17 0.10 0.04 0.06 0.02 0.06 0.04 0.02 0.00 0.00 0.00 0.00 0.00 0.00 0.00 0.00 0.00 0.00 0.00 0.00 0.00 0.00 0.00 0.00 0.00 0.00
0.00 0.01 0.01 0.01 0.01 0.00 0.02 0.03 0.03 0.20 0.32 0.14 0.01 0.00 0.00 0.00 0.00 0.01 0.06 0.12 0.11 0.10 0.08 0.11 0.08 0.02 0.00 0.00 0.00 0.00 0.00 0.00 0.00 0.00 0.00 0.00 0.00 0.00 0.00 0.00 0.00 0.00 0.00 0.00
0.01 0.01 0.00 0.00 0.00 0.00 0.01 0.03 0.02 0.07 0.25 0.14 0.01 0.00 0.00 0.00 0.00 0.00 0.03 0.12 0.16 0.13 0.13 0.11 0.06 0.02 0.00 0.00 0.00 0.00 0.00 0.00 0.00 0.00 0.00 0.00 0.00 0.00 0.00 0.00 0.00 0.00 0.00 0.00
0.01 0.00 0.00 0.00 0.00 0.00 0.02 0.04 0.01 0.05 0.13 0.09 0.01 0.00 0.00 0.00 0.00 0.01 0.05 0.10 0.17 0.17 0.12 0.06 0.03 0.00 0.01 0.04 0.01 0.00 0.00 0.00 0.00 0.00 0.00 0.00 0.00 0.00 0.00 0.00 0.00 0.00 0.00 0.00
0.00 0.00 0.00 0.00 0.00 0.00 0.03 0.07 0.07 0.09 0.08 0.07 0.01 0.00 0.00 0.00 0.00 0.00 0.03 0.08 0.12 0.12 0.09 0.03 0.01 0.00 0.02 0.04 0.01 0.00 0.00 0.00 0.00 0.00 0.00 0.00 0.00 0.00 0.00 0.00 0.00 0.00 0.00 0.00
0.00 0.00 0.00 0.00 0.00 0.01 0.01 0.02 0.08 0.13 0.11 0.07 0.02 0.00 0.00 0.00 0.00 0.01 0.01 0.03 0.04 0.03 0.01 0.00 0.00 0.00 0.01 0.01 0.00 0.00 0.00 0.00 0.00 0.00 0.00 0.00 0.00 0.00 0.00 0.00 0.00 0.00 0.00 0.00
0.00 0.00 0.00 0.00 0.01 0.01 0.00 0.00 0.01 0.03 0.07 0.11 0.03 0.01 0.01 0.01 0.02 0.02 0.02 0.02 0.01 0.01 0.01 0.00 0.00 0.00 0.01 0.00 0.00 0.00 0.00 0.00 0.00 0.00 0.00 0.00 0.00 0.00 0.00 0.00 0.00 0.00 0.00 0.00
0.00 0.00 0.00 0.00 0.00 0.00 0.00 0.00 0.01 0.04 0.04 0.07 0.03 0.01 0.02 0.01 0.02 0.03 0.02 0.02 0.01 0.01 0.00 0.00 0.01 0.00 0.00 0.00 0.00 0.00 0.00 0.00 0.00 0.00 0.00 0.00 0.00 0.00 0.00 0.00 0.00 0.00 0.00 0.02
0.00 0.00 0.00 0.00 0.00 0.00 0.00 0.01 0.02 0.03 0.03 0.02 0.01 0.00 0.01 0.00 0.02 0.03 0.03 0.03 0.01 0.01 0.00 0.00 0.00 0.00 0.00 0.00 0.00 0.00 0.00 0.00 0.00 0.00 0.00 0.00 0.00 0.00 0.00 0.00 0.00 0.00 0.01 0.04
0.00 0.00 0.00 0.00 0.01 0.01 0.02 0.02 0.00 0.01 0.01 0.01 0.01 0.01 0.00 0.00 0.00 0.02 0.02 0.03 0.02 0.02 0.01 0.02 0.00 0.00 0.00 0.00 0.00 0.00 0.00 0.00 0.00 0.00 0.00 0.00 0.00 0.00 0.00 0.00 0.00 0.00 0.00 0.03
0.00 0.03 0.02 0.01 0.01 0.01 0.01 0.01 0.02 0.01 0.01 0.01 0.00 0.01 0.00 0.01 0.01 0.02 0.05 0.04 0.01 0.01 0.01 0.01 0.00 0.00 0.00 0.00 0.00 0.00 0.00 0.00 0.02 0.01 0.00 0.00 0.00 0.00 0.00 0.00 0.02 0.04 0.05 0.03
0.01 0.02 0.01 0.00 0.00 0.00 0.00 0.01 0.02 0.00 0.00 0.00 0.01 0.01 0.01 0.01 0.02 0.02 0.02 0.01 0.01 0.01 0.01 0.02 0.01 0.00 0.00 0.00 0.00 0.00 0.00 0.00 0.03 0.02 0.01 0.00 0.00 0.00 0.00 0.01 0.04 0.08 0.16 0.18
0.01 0.01 0.01 0.00 0.00 0.00 0.00 0.00 0.00 0.00 0.00 0.00 0.02 0.02 0.01 0.02 0.02 0.02 0.03 0.01 0.01 0.02 0.04 0.01 0.00 0.00 0.01 0.01 0.01 0.00 0.00 0.00 0.01 0.03 0.04 0.03 0.04 0.05 0.06 0.07 0.09 0.11 0.16 0.18
0.01 0.00 0.00 0.00 0.00 0.00 0.00 0.00 0.00 0.00 0.00 0.01 0.03 0.06 0.07 0.03 0.02 0.02 0.02 0.02 0.02 0.02 0.00 0.00 0.00 0.00 0.01 0.02 0.00 0.01 0.01 0.02 0.02 0.03 0.06 0.05 0.06 0.10 0.20 0.26 0.22 0.19 0.18 0.19
0.01 0.00 0.00 0.00 0.00 0.00 0.00 0.00 0.01 0.00 0.01 0.03 0.02 0.02 0.03 0.02 0.02 0.03 0.03 0.03 0.01 0.00 0.00 0.00 0.01 0.02 0.01 0.01 0.00 0.01 0.03 0.04 0.04 0.03 0.05 0.09 0.14 0.13 0.13 0.17 0.21 0.19 0.22 0.26

GFSNW_prec_prec_237.txt.gz
QPF
0.00 0.00 0.00 0.01 0.01 0.00 0.00 0.01 0.01 0.03 0.08 0.07 0.05 0.06 0.07 0.03 0.01 0.01 0.01 0.01 0.01 0.01 0.00 0.00 0.00 0.00 0.01 0.03 0.05 0.15 0.31 0.41 0.16 0.05 0.05 0.07 0.19 0.16 0.23 0.16 0.12 0.01 0.00 0.00
0.00 0.00 0.00 0.01 0.02 0.00 0.01 0.01 0.01 0.00 0.05 0.02 0.02 0.03 0.05 0.08 0.05 0.03 0.02 0.02 0.02 0.01 0.00 0.00 0.00 0.00 0.00 0.00 0.01 0.02 0.07 0.21 0.10 0.03 0.03 0.11 0.31 0.39 0.36 0.23 0.07 0.06 0.00 0.00
0.00 0.00 0.00 0.02 0.02 0.00 0.01 0.03 0.02 0.01 0.04 0.02 0.02 0.04 0.04 0.05 0.05 0.03 0.02 0.03 0.02 0.02 0.00 0.00 0.00 0.00 0.00 0.00 0.00 0.01 0.02 0.05 0.07 0.10 0.18 0.26 0.30 0.32 0.51 0.37 0.22 0.14 0.01 0.00
0.01 0.00 0.01 0.03 0.01 0.01 0.03 0.03 0.02 0.01 0.02 0.02 0.03 0.02 0.03 0.02 0.01 0.04 0.05 0.08 0.02 0.01 0.02 0.01 0.01 0.00 0.00 0.00 0.00 0.00 0.01 0.03 0.07 0.08 0.06 0.03 0.02 0.01 0.09 0.23 0.18 0.13 0.01 0.00
0.01 0.01 0.01 0.03 0.02 0.01 0.04 0.03 0.02 0.02 0.02 0.01 0.01 0.00 0.00 0.01 0.01 0.03 0.05 0.06 0.04 0.04 0.04 0.04 0.02 0.01 0.01 0.01 0.00 0.00 0.00 0.01 0.00 0.00 0.00 0.00 0.00 0.00 0.00 0.01 0.04 0.07 0.00 0.00
0.01 0.01 0.01 0.03 0.02 0.02 0.03 0.02 0.03 0.06 0.03 0.01 0.01 0.01 0.01 0.02 0.02 0.02 0.03 0.04 0.07 0.10 0.06 0.04 0.03 0.01 0.00 0.00 0.00 0.01 0.01 0.01 0.00 0.00 0.00 0.00 0.00 0.00 0.00 0.00 0.00 0.00 0.00 0.00
0.01 0.01 0.01 0.01 0.02 0.03 0.05 0.03 0.05 0.06 0.04 0.01 0.01 0.01 0.01 0.01 0.00 0.01 0.00 0.00 0.01 0.01 0.00 0.01 0.00 0.00 0.00 0.00 0.00 0.00 0.00 0.01 0.02 0.01 0.00 0.01 0.00 0.00 0.00 0.00 0.00 0.00 0.00 0.00
0.00 0.00 0.01 0.01 0.01 0.04 0.06 0.06 0.09 0.08 0.04 0.01 0.01 0.01 0.01 0.02 0.01 0.00 0.00 0.00 0.00 0.00 0.01 0.04 0.04 0.01 0.01 0.00 0.00 0.00 0.00 0.01 0.03 0.01 0.01 0.00 0.00 0.00 0.00 0.00 0.00 0.00 0.00 0.00
0.00 0.00 0.01 0.01 0.01 0.02 0.06 0.08 0.10 0.12 0.10 0.02 0.01 0.01 0.01 0.02 0.03 0.02 0.01 0.00 0.01 0.02 0.04 0.06 0.05 0.02 0.01 0.00 0.00 0.00 0.00 0.00 0.04 0.02 0.01 0.00 0.00 0.00 0.00 0.00 0.00 0.00 0.00 0.00
0.00 0.00 0.00 0.00 0.00 0.01 0.04 0.05 0.08 0.16 0.14 0.01 0.01 0.01 0.01 0.01 0.03 0.05 0.02 0.02 0.04 0.05 0.12 0.12 0.04 0.01 0.01 0.01 0.00 0.00 0.00 0.01 0.05 0.02 0.01 0.00 0.00 0.00 0.00 0.00 0.00 0.00 0.00 0.00
0.00 0.00 0.01 0.02 0.01 0.01 0.04 0.03 0.05 0.09 0.07 0.01 0.00 0.00 0.00 0.01 0.04 0.10 0.03 0.12 0.05 0.05 0.07 0.08 0.06 0.04 0.02 0.02 0.00 0.00 0.01 0.01 0.01 0.02 0.04 0.03 0.00 0.00 0.00 0.00 0.00 0.00 0.00 0.00
0.01 0.01 0.01 0.00 0.00 0.00 0.02 0.03 0.02 0.05 0.07 0.02 0.00 0.00 0.00 0.00 0.01 0.05 0.09 0.14 0.05 0.08 0.09 0.08 0.09 0.07 0.04 0.02 0.01 0.00 0.01 0.00 0.00 0.01 0.01 0.00 0.00 0.00 0.00 0.00 0.00 0.00 0.00 0.00
0.01 0.01 0.01 0.00 0.01 0.02 0.02 0.02 0.02 0.06 0.05 0.03 0.00 0.00 0.00 0.00 0.00 0.01 0.10 0.04 0.02 0.02 0.02 0.07 0.08 0.07 0.04 0.04 0.02 0.02 0.00 0.00 0.00 0.01 0.00 0.00 0.00 0.00 0.00 0.00 0.00 0.00 0.00 0.00
0.00 0.00 0.00 0.01 0.01 0.01 0.02 0.03 0.02 0.07 0.14 0.11 0.01 0.00 0.00 0.00 0.00 0.00 0.01 0.01 0.03 0.07 0.08 0.14 0.10 0.06 0.03 0.03 0.02 0.02 0.01 0.01 0.01 0.01 0.00 0.00 0.00 0.00 0.00 0.00 0.00 0.00 0.00 0.00
0.00 0.00 0.01 0.01 0.01 0.01 0.02 0.02 0.01 0.02 0.17 0.14 0.03 0.01 0.00 0.00 0.00 0.01 0.01 0.02 0.04 0.10 0.19 0.17 0.08 0.03 0.04 0.02 0.03 0.01 0.00 0.01 0.02 0.01 0.00 0.00 0.00 0.00 0.00 0.00 0.00 0.00 0.00 0.00
0.00 0.00 0.00 0.00 0.00 0.01 0.03 0.03 0.03 0.09 0.20 0.31 0.09 0.02 0.00 0.00 0.00 0.00 0.01 0.01 0.06 0.14 0.19 0.11 0.05 0.04 0.06 0.04 0.01 0.00 0.00 0.00 0.00 0.00 0.00 0.00 0.00 0.00 0.00 0.00 0.00 0.00 0.00 0.00
0.00 0.00 0.00 0.00 0.00 0.01 0.03 0.03 0.03 0.07 0.28 0.26 0.05 0.02 0.00 0.00 0.00 0.00 0.00 0.01 0.04 0.08 0.12 0.08 0.05 0.04 0.05 0.03 0.01 0.00 0.00 0.00 0.00 0.00 0.00 0.00 0.00 0.00 0.00 0.00 0.00 0.00 0.00 0.00
0.00 0.00 0.00 0.00 0.00 0.01 0.01 0.00 0.01 0.08 0.17 0.11 0.04 0.02 0.02 0.00 0.00 0.01 0.02 0.05 0.04 0.05 0.05 0.03 0.02 0.03 0.06 0.02 0.00 0.00 0.00 0.00 0.00 0.00 0.00 0.00 0.00 0.00 0.00 0.00 0.00 0.00 0.00 0.00
0.00 0.00 0.00 0.00 0.01 0.01 0.02 0.00 0.00 0.03 0.07 0.09 0.06 0.02 0.05 0.00 0.01 0.01 0.02 0.02 0.03 0.03 0.02 0.01 0.01 0.01 0.02 0.00 0.00 0.00 0.00 0.00 0.00 0.00 0.00 0.00 0.00 0.00 0.00 0.00 0.00 0.00 0.00 0.00
0.00 0.00 0.00 0.01 0.01 0.00 0.01 0.02 0.03 0.04 0.05 0.04 0.02 0.01 0.04 0.03 0.04 0.04 0.04 0.03 0.02 0.04 0.02 0.01 0.01 0.00 0.00 0.00 0.00 0.00 0.00 0.00 0.00 0.00 0.00 0.00 0.00 0.00 0.00 0.00 0.00 0.00 0.00 0.00
0.00 0.00 0.00 0.01 0.00 0.00 0.03 0.02 0.02 0.04 0.05 0.02 0.00 0.01 0.02 0.03 0.03 0.04 0.04 0.05 0.04 0.03 0.02 0.02 0.02 0.01 0.01 0.00 0.00 0.00 0.00 0.00 0.00 0.00 0.00 0.00 0.00 0.00 0.00 0.00 0.00 0.00 0.00 0.00
0.00 0.00 0.00 0.00 0.01 0.02 0.02 0.03 0.02 0.02 0.03 0.04 0.03 0.03 0.03 0.03 0.01 0.02 0.03 0.04 0.04 0.03 0.03 0.02 0.01 0.03 0.00 0.00 0.00 0.00 0.00 0.00 0.00 0.00 0.00 0.00 0.00 0.00 0.00 0.00 0.00 0.00 0.00 0.00
0.00 0.02 0.02 0.02 0.01 0.02 0.02 0.01 0.02 0.03 0.03 0.04 0.04 0.04 0.04 0.02 0.01 0.02 0.03 0.04 0.03 0.03 0.03 0.02 0.02 0.02 0.00 0.00 0.00 0.00 0.00 0.00 0.00 0.00 0.00 0.01 0.01 0.01 0.01 0.00 0.00 0.00 0.00 0.00
0.01 0.02 0.02 0.01 0.01 0.00 0.00 0.01 0.05 0.04 0.01 0.02 0.02 0.03 0.03 0.04 0.04 0.03 0.03 0.03 0.02 0.02 0.01 0.04 0.03 0.00 0.00 0.00 0.00 0.00 0.00 0.00 0.00 0.00 0.00 0.01 0.01 0.01 0.00 0.00 0.00 0.00 0.00 0.00
0.01 0.01 0.01 0.00 0.00 0.00 0.00 0.01 0.02 0.02 0.01 0.01 0.02 0.03 0.03 0.04 0.03 0.03 0.05 0.04 0.02 0.02 0.03 0.02 0.00 0.00 0.00 0.00 0.00 0.00 0.00 0.00 0.01 0.01 0.01 0.04 0.07 0.06 0.06 0.05 0.04 0.04 0.05 0.05
0.00 0.00 0.00 0.00 0.00 0.01 0.01 0.01 0.01 0.00 0.00 0.00 0.02 0.05 0.07 0.05 0.04 0.04 0.03 0.03 0.04 0.04 0.00 0.00 0.00 0.00 0.00 0.00 0.00 0.00 0.01 0.01 0.02 0.01 0.02 0.05 0.07 0.07 0.09 0.13 0.14 0.10 0.06 0.05
0.01 0.00 0.00 0.00 0.00 0.01 0.02 0.03 0.03 0.01 0.01 0.03 0.06 0.05 0.04 0.04 0.04 0.04 0.03 0.04 0.03 0.01 0.00 0.00 0.00 0.00 0.01 0.00 0.00 0.00 0.00 0.01 0.02 0.01 0.02 0.05 0.08 0.11 0.10 0.08 0.08 0.06 0.06 0.07

GFSNW_prec_prec_240.txt.gz
QPF
0.00 0.00 0.00 0.00 0.00 0.00 0.00 0.01 0.01 0.02 0.03 0.05 0.05 0.03 0.02 0.03 0.02 0.01 0.04 0.02 0.01 0.00 0.00 0.00 0.00 0.00 0.01 0.00 0.00 0.01 0.04 0.08 0.04 0.13 0.06 0.02 0.13 0.30 0.33 0.31 0.23 0.05 0.00 0.00
0.00 0.00 0.00 0.00 0.00 0.01 0.01 0.02 0.00 0.00 0.02 0.03 0.02 0.01 0.00 0.02 0.03 0.05 0.06 0.03 0.01 0.00 0.00 0.00 0.00 0.02 0.02 0.00 0.00 0.01 0.02 0.05 0.00 0.01 0.09 0.28 0.33 0.48 0.60 0.56 0.23 0.06 0.01 0.00
0.00 0.00 0.00 0.00 0.00 0.02 0.02 0.03 0.02 0.01 0.03 0.02 0.01 0.02 0.02 0.01 0.02 0.03 0.04 0.03 0.01 0.02 0.01 0.01 0.01 0.01 0.02 0.00 0.00 0.00 0.00 0.01 0.01 0.05 0.18 0.33 0.37 0.24 0.25 0.31 0.39 0.22 0.03 0.00
0.00 0.00 0.00 0.00 0.01 0.00 0.02 0.04 0.02 0.01 0.02 0.02 0.02 0.02 0.01 0.00 0.00 0.00 0.01 0.01 0.04 0.05 0.05 0.02 0.02 0.03 0.02 0.01 0.01 0.00 0.01 0.00 0.00 0.02 0.02 0.02 0.06 0.10 0.07 0.09 0.10 0.09 0.02 0.00
0.00 0.00 0.01 0.01 0.00 0.00 0.04 0.04 0.02 0.02 0.01 0.01 0.01 0.02 0.01 0.01 0.00 0.01 0.01 0.02 0.02 0.05 0.12 0.11 0.10 0.06 0.05 0.03 0.01 0.03 0.03 0.01 0.01 0.00 0.00 0.00 0.01 0.02 0.01 0.01 0.01 0.01 0.00 0.00
0.01 0.00 0.01 0.02 0.02 0.01 0.05 0.02 0.03 0.07 0.05 0.02 0.02 0.02 0.01 0.01 0.01 0.01 0.01 0.01 0.01 0.02 0.03 0.04 0.03 0.01 0.01 0.01 0.01 0.01 0.05 0.05 0.01 0.00 0.00 0.01 0.01 0.00 0.00 0.00 0.00 0.00 0.00 0.00
0.01 0.00 0.00 0.01 0.02 0.01 0.04 0.03 0.06 0.08 0.04 0.02 0.02 0.01 0.01 0.00 0.01 0.01 0.00 0.00 0.00 0.00 0.00 0.00 0.00 0.00 0.00 0.00 0.00 0.00 0.01 0.02 0.03 0.01 0.01 0.01 0.00 0.00 0.00 0.00 0.00 0.00 0.00 0.00
0.01 0.00 0.00 0.00 0.01 0.02 0.05 0.05 0.08 0.11 0.08 0.02 0.01 0.02 0.03 0.01 0.00 0.00 0.00 0.00 0.00 0.00 0.00 0.01 0.01 0.00 0.00 0.00 0.00 0.00 0.00 0.02 0.05 0.02 0.01 0.00 0.00 0.00 0.00 0.00 0.00 0.00 0.00 0.00
0.01 0.01 0.00 0.00 0.00 0.01 0.03 0.04 0.08 0.11 0.13 0.03 0.02 0.03 0.03 0.03 0.03 0.01 0.01 0.00 0.00 0.02 0.05 0.04 0.02 0.00 0.00 0.01 0.00 0.00 0.00 0.00 0.04 0.01 0.01 0.00 0.00 0.00 0.00 0.00 0.00 0.00 0.00 0.00
0.01 0.01 0.00 0.00 0.00 0.00 0.02 0.01 0.05 0.10 0.15 0.04 0.03 0.04 0.04 0.04 0.04 0.04 0.02 0.03 0.07 0.06 0.09 0.06 0.02 0.01 0.01 0.01 0.01 0.00 0.00 0.01 0.02 0.01 0.01 0.00 0.00 0.00 0.00 0.00 0.00 0.00 0.00 0.00
0.01 0.01 0.00 0.00 0.01 0.02 0.02 0.01 0.03 0.07 0.10 0.03 0.00 0.01 0.01 0.01 0.02 0.02 0.01 0.08 0.04 0.06 0.10 0.05 0.03 0.03 0.02 0.02 0.01 0.01 0.03 0.01 0.01 0.01 0.03 0.02 0.00 0.00 0.00 0.00 0.00 0.00 0.00 0.00
0.00 0.01 0.01 0.01 0.02 0.00 0.00 0.01 0.00 0.04 0.08 0.03 0.00 0.00 0.00 0.00 0.00 0.02 0.04 0.10 0.04 0.20 0.16 0.13 0.16 0.11 0.09 0.06 0.05 0.01 0.04 0.02 0.01 0.00 0.00 0.00 0.00 0.00 0.00 0.00 0.00 0.00 0.00 0.00
0.01 0.01 0.01 0.01 0.01 0.00 0.02 0.02 0.01 0.04 0.05 0.02 0.00 0.00 0.00 0.00 0.00 0.01 0.20 0.05 0.01 0.01 0.04 0.08 0.08 0.04 0.02 0.02 0.02 0.02 0.01 0.01 0.03 0.03 0.00 0.00 0.00 0.00 0.00 0.00 0.00 0.00 0.00 0.00
0.01 0.01 0.00 0.00 0.01 0.01 0.02 0.02 0.01 0.04 0.06 0.04 0.00 0.00 0.00 0.00 0.01 0.02 0.02 0.01 0.02 0.04 0.04 0.16 0.12 0.03 0.01 0.02 0.02 0.02 0.02 0.02 0.03 0.03 0.00 0.01 0.00 0.00 0.00 0.00 0.00 0.00 0.00 0.00
0.01 0.01 0.01 0.01 0.01 0.01 0.01 0.01 0.00 0.01 0.06 0.03 0.00 0.00 0.00 0.00 0.02 0.04 0.06 0.04 0.04 0.05 0.10 0.10 0.05 0.01 0.02 0.01 0.01 0.01 0.00 0.01 0.03 0.01 0.00 0.02 0.00 0.00 0.00 0.00 0.00 0.00 0.00 0.00
0.01 0.01 0.00 0.00 0.00 0.01 0.04 0.01 0.00 0.05 0.14 0.29 0.07 0.00 0.00 0.01 0.01 0.01 0.01 0.02 0.03 0.03 0.05 0.06 0.03 0.01 0.07 0.08 0.02 0.00 0.00 0.00 0.00 0.00 0.00 0.00 0.00 0.00 0.00 0.00 0.00 0.00 0.00 0.00
0.00 0.00 0.00 0.00 0.01 0.02 0.03 0.01 0.05 0.10 0.11 0.21 0.09 0.02 0.02 0.00 0.00 0.00 0.00 0.00 0.01 0.02 0.05 0.04 0.02 0.02 0.07 0.07 0.01 0.00 0.00 0.00 0.00 0.00 0.00 0.00 0.00 0.00 0.00 0.00 0.00 0.00 0.00 0.00
0.00 0.00 0.00 0.00 0.01 0.03 0.01 0.00 0.00 0.01 0.07 0.13 0.09 0.03 0.05 0.00 0.00 0.00 0.00 0.01 0.02 0.03 0.02 0.02 0.02 0.04 0.09 0.07 0.00 0.00 0.00 0.00 0.00 0.00 0.00 0.00 0.00 0.00 0.00 0.00 0.00 0.00 0.00 0.00
0.00 0.00 0.00 0.00 0.01 0.01 0.01 0.00 0.01 0.04 0.06 0.11 0.05 0.02 0.06 0.02 0.01 0.01 0.01 0.02 0.02 0.02 0.02 0.01 0.03 0.03 0.03 0.00 0.00 0.00 0.00 0.00 0.00 0.00 0.00 0.00 0.00 0.00 0.00 0.00 0.00 0.00 0.00 0.00
0.00 0.00 0.01 0.01 0.02 0.00 0.00 0.02 0.03 0.04 0.04 0.06 0.01 0.01 0.04 0.06 0.08 0.08 0.06 0.05 0.02 0.04 0.02 0.01 0.02 0.00 0.00 0.00 0.00 0.00 0.00 0.00 0.00 0.00 0.00 0.00 0.00 0.00 0.00 0.00 0.00 0.00 0.00 0.00
0.00 0.01 0.01 0.01 0.00 0.00 0.03 0.05 0.03 0.03 0.04 0.01 0.00 0.00 0.01 0.04 0.06 0.06 0.03 0.04 0.05 0.05 0.03 0.05 0.03 0.03 0.06 0.01 0.00 0.00 0.00 0.00 0.00 0.00 0.00 0.00 0.00 0.00 0.00 0.00 0.00 0.00 0.00 0.00
0.01 0.00 0.00 0.00 0.00 0.02 0.02 0.02 0.01 0.02 0.02 0.05 0.03 0.04 0.05 0.07 0.03 0.02 0.02 0.02 0.03 0.03 0.04 0.05 0.02 0.06 0.01 0.00 0.00 0.00 0.00 0.00 0.00 0.00 0.00 0.00 0.00 0.00 0.00 0.00 0.00 0.00 0.00 0.00
0.00 0.02 0.01 0.01 0.01 0.03 0.02 0.00 0.01 0.02 0.03 0.05 0.05 0.05 0.04 0.04 0.03 0.02 0.01 0.02 0.02 0.04 0.03 0.02 0.08 0.07 0.00 0.00 0.00 0.00 0.00 0.00 0.00 0.00 0.00 0.00 0.00 0.00 0.01 0.02 0.01 0.00 0.01 0.00
0.01 0.01 0.01 0.01 0.01 0.00 0.00 0.00 0.02 0.05 0.05 0.04 0.03 0.04 0.03 0.03 0.05 0.03 0.02 0.02 0.03 0.02 0.02 0.06 0.05 0.00 0.00 0.00 0.00 0.00 0.00 0.00 0.00 0.00 0.00 0.00 0.00 0.00 0.01 0.03 0.03 0.03 0.02 0.01
0.02 0.00 0.01 0.00 0.00 0.00 0.01 0.01 0.02 0.04 0.04 0.03 0.01 0.00 0.01 0.02 0.03 0.02 0.03 0.04 0.02 0.03 0.05 0.04 0.00 0.00 0.00 0.00 0.00 0.00 0.00 0.00 0.00 0.00 0.01 0.01 0.01 0.03 0.05 0.06 0.06 0.04 0.03 0.02
0.01 0.00 0.00 0.00 0.01 0.01 0.01 0.01 0.01 0.02 0.01 0.00 0.00 0.01 0.03 0.03 0.02 0.03 0.02 0.03 0.04 0.06 0.01 0.00 0.00 0.00 0.00 0.00 0.00 0.00 0.00 0.00 0.00 0.00 0.01 0.01 0.03 0.07 0.10 0.10 0.10 0.09 0.06 0.04
0.00 0.00 0.00 0.00 0.00 0.01 0.02 0.03 0.04 0.05 0.03 0.01 0.04 0.05 0.03 0.04 0.04 0.04 0.04 0.04 0.05 0.02 0.00 0.00 0.00 0.00 0.01 0.00 0.00 0.00 0.01 0.01 0.00 0.00 0.00 0.01 0.03 0.07 0.08 0.07 0.07 0.05 0.04 0.04

GFSNW_prec_prec_246.txt.gz
QPF
0.00 0.00 0.00 0.00 0.00 0.00 0.00 0.00 0.00 0.00 0.00 0.00 0.00 0.00 0.00 0.00 0.00 0.00 0.00 0.01 0.02 0.05 0.03 0.00 0.00 0.01 0.04 0.02 0.00 0.00 0.00 0.00 0.00 0.05 0.24 0.10 0.04 0.07 0.15 0.25 0.17 0.09 0.03 0.01
0.00 0.00 0.00 0.00 0.00 0.00 0.00 0.00 0.00 0.00 0.00 0.00 0.00 0.00 0.00 0.00 0.00 0.00 0.00 0.00 0.01 0.01 0.00 0.03 0.02 0.01 0.03 0.03 0.01 0.01 0.00 0.00 0.00 0.04 0.20 0.17 0.19 0.21 0.18 0.15 0.16 0.16 0.10 0.02
0.01 0.00 0.00 0.00 0.00 0.00 0.00 0.00 0.00 0.00 0.00 0.00 0.00 0.00 0.00 0.00 0.00 0.00 0.00 0.00 0.00 0.00 0.00 0.02 0.03 0.00 0.01 0.01 0.01 0.03 0.02 0.00 0.00 0.03 0.10 0.16 0.19 0.14 0.09 0.08 0.08 0.07 0.08 0.01
0.00 0.00 0.00 0.00 0.00 0.01 0.00 0.00 0.00 0.00 0.00 0.00 0.00 0.00 0.00 0.00 0.00 0.00 0.00 0.00 0.00 0.00 0.00 0.00 0.01 0.00 0.00 0.00 0.02 0.04 0.01 0.00 0.00 0.00 0.00 0.02 0.05 0.06 0.06 0.04 0.03 0.01 0.00 0.00
0.00 0.00 0.00 0.01 0.00 0.02 0.00 0.00 0.00 0.00 0.00 0.00 0.00 0.00 0.00 0.00 0.00 0.00 0.00 0.00 0.00 0.00 0.00 0.01 0.02 0.01 0.00 0.01 0.05 0.06 0.17 0.09 0.02 0.01 0.00 0.01 0.02 0.00 0.00 0.01 0.01 0.00 0.00 0.00
0.00 0.00 0.01 0.01 0.01 0.01 0.02 0.00 0.00 0.03 0.02 0.01 0.01 0.00 0.00 0.00 0.00 0.00 0.00 0.00 0.00 0.00 0.00 0.00 0.00 0.00 0.00 0.00 0.01 0.00 0.01 0.01 0.01 0.00 0.00 0.00 0.00 0.00 0.00 0.00 0.00 0.00 0.01 0.01
0.00 0.00 0.01 0.02 0.01 0.01 0.00 0.00 0.02 0.04 0.01 0.00 0.00 0.00 0.00 0.00 0.00 0.01 0.00 0.00 0.00 0.00 0.00 0.00 0.00 0.00 0.00 0.00 0.00 0.00 0.00 0.00 0.01 0.00 0.00 0.00 0.00 0.00 0.00 0.00 0.00 0.00 0.01 0.04
0.00 0.00 0.01 0.02 0.02 0.03 0.01 0.00 0.04 0.10 0.05 0.00 0.00 0.00 0.00 0.00 0.00 0.00 0.00 0.00 0.01 0.01 0.00 0.01 0.00 0.00 0.00 0.00 0.00 0.00 0.00 0.00 0.00 0.00 0.00 0.00 0.00 0.00 0.00 0.00 0.00 0.00 0.00 0.00
0.00 0.00 0.00 0.00 0.01 0.02 0.01 0.00 0.02 0.05 0.06 0.01 0.00 0.00 0.00 0.00 0.00 0.00 0.00 0.00 0.01 0.02 0.01 0.02 0.03 0.01 0.00 0.00 0.00 0.02 0.03 0.02 0.01 0.00 0.01 0.00 0.00 0.00 0.00 0.00 0.00 0.00 0.00 0.00
0.00 0.00 0.01 0.01 0.01 0.02 0.01 0.00 0.00 0.03 0.04 0.01 0.00 0.00 0.00 0.01 0.00 0.01 0.01 0.00 0.00 0.00 0.00 0.01 0.03 0.01 0.01 0.00 0.00 0.00 0.01 0.04 0.04 0.00 0.01 0.00 0.00 0.00 0.00 0.00 0.00 0.00 0.00 0.00
0.00 0.00 0.00 0.00 0.00 0.02 0.02 0.00 0.00 0.02 0.04 0.01 0.00 0.00 0.00 0.00 0.00 0.01 0.00 0.01 0.00 0.00 0.03 0.04 0.03 0.05 0.06 0.01 0.00 0.00 0.00 0.00 0.02 0.04 0.03 0.01 0.00 0.00 0.00 0.00 0.00 0.00 0.00 0.00
0.00 0.00 0.01 0.01 0.01 0.01 0.02 0.00 0.00 0.00 0.04 0.01 0.00 0.00 0.00 0.00 0.00 0.01 0.02 0.02 0.00 0.01 0.01 0.06 0.05 0.03 0.03 0.01 0.01 0.03 0.05 0.06 0.05 0.02 0.01 0.00 0.02 0.00 0.00 0.00 0.00 0.00 0.00 0.00
0.00 0.01 0.00 0.00 0.01 0.02 0.01 0.00 0.00 0.00 0.00 0.00 0.00 0.00 0.00 0.00 0.00 0.00 0.00 0.00 0.00 0.00 0.01 0.06 0.03 0.01 0.00 0.00 0.00 0.01 0.02 0.06 0.10 0.07 0.05 0.08 0.06 0.02 0.00 0.00 0.00 0.00 0.00 0.00
0.00 0.00 0.00 0.00 0.01 0.01 0.01 0.00 0.00 0.02 0.04 0.03 0.00 0.00 0.00 0.00 0.00 0.00 0.00 0.00 0.00 0.01 0.06 0.19 0.10 0.04 0.02 0.01 0.00 0.00 0.00 0.00 0.00 0.00 0.00 0.01 0.02 0.02 0.00 0.00 0.00 0.00 0.00 0.00
0.00 0.01 0.00 0.00 0.01 0.02 0.01 0.00 0.00 0.00 0.02 0.01 0.00 0.00 0.00 0.00 0.00 0.00 0.00 0.00 0.00 0.04 0.18 0.14 0.04 0.00 0.00 0.00 0.00 0.00 0.00 0.00 0.00 0.00 0.00 0.01 0.00 0.01 0.00 0.00 0.00 0.00 0.00 0.00
0.00 0.00 0.01 0.01 0.00 0.01 0.00 0.00 0.01 0.01 0.00 0.03 0.01 0.00 0.00 0.00 0.00 0.00 0.00 0.00 0.00 0.05 0.11 0.07 0.02 0.00 0.01 0.02 0.00 0.00 0.00 0.00 0.00 0.00 0.00 0.00 0.00 0.00 0.00 0.00 0.00 0.00 0.00 0.00
0.00 0.00 0.01 0.00 0.01 0.01 0.00 0.00 0.00 0.01 0.05 0.08 0.02 0.00 0.00 0.00 0.00 0.00 0.00 0.00 0.00 0.01 0.04 0.02 0.00 0.00 0.01 0.02 0.00 0.00 0.00 0.00 0.00 0.00 0.00 0.00 0.00 0.00 0.00 0.00 0.00 0.00 0.00 0.00
0.00 0.00 0.01 0.01 0.02 0.01 0.01 0.00 0.00 0.01 0.07 0.04 0.01 0.00 0.00 0.00 0.00 0.00 0.00 0.00 0.00 0.01 0.01 0.00 0.00 0.00 0.01 0.01 0.00 0.00 0.00 0.00 0.00 0.00 0.00 0.00 0.00 0.00 0.00 0.00 0.00 0.00 0.00 0.00
0.00 0.00 0.01 0.01 0.01 0.00 0.00 0.00 0.00 0.00 0.01 0.02 0.01 0.00 0.00 0.01 0.03 0.03 0.06 0.02 0.02 0.01 0.01 0.00 0.00 0.00 0.01 0.00 0.01 0.01 0.03 0.03 0.01 0.00 0.00 0.00 0.00 0.00 0.00 0.00 0.00 0.00 0.00 0.00
0.00 0.00 0.00 0.00 0.00 0.00 0.00 0.01 0.01 0.08 0.07 0.05 0.01 0.00 0.00 0.00 0.00 0.04 0.16 0.17 0.09 0.05 0.00 0.00 0.00 0.00 0.00 0.01 0.01 0.00 0.01 0.01 0.01 0.00 0.00 0.00 0.00 0.00 0.00 0.00 0.00 0.00 0.00 0.00
0.00 0.02 0.04 0.00 0.01 0.00 0.00 0.01 0.02 0.01 0.03 0.03 0.00 0.00 0.00 0.00 0.00 0.00 0.00 0.01 0.01 0.02 0.00 0.00 0.01 0.03 0.10 0.12 0.10 0.11 0.04 0.00 0.00 0.00 0.00 0.00 0.00 0.00 0.00 0.00 0.00 0.00 0.00 0.00
0.04 0.04 0.02 0.00 0.00 0.00 0.00 0.00 0.01 0.01 0.00 0.00 0.00 0.00 0.00 0.00 0.03 0.06 0.06 0.03 0.02 0.01 0.02 0.02 0.01 0.02 0.01 0.00 0.00 0.00 0.00 0.00 0.00 0.00 0.00 0.00 0.00 0.00 0.00 0.00 0.00 0.00 0.00 0.00
0.00 0.00 0.00 0.00 0.00 0.00 0.01 0.00 0.00 0.00 0.00 0.01 0.01 0.02 0.02 0.02 0.02 0.10 0.14 0.07 0.01 0.00 0.01 0.00 0.01 0.00 0.00 0.00 0.00 0.00 0.00 0.00 0.00 0.00 0.00 0.00 0.00 0.00 0.00 0.00 0.00 0.00 0.00 0.00
0.00 0.02 0.02 0.00 0.00 0.00 0.00 0.00 0.00 0.00 0.00 0.00 0.02 0.10 0.13 0.05 0.03 0.01 0.00 0.00 0.01 0.01 0.00 0.01 0.01 0.00 0.00 0.00 0.00 0.00 0.00 0.00 0.00 0.00 0.00 0.00 0.00 0.00 0.00 0.00 0.00 0.00 0.00 0.00
0.00 0.01 0.00 0.00 0.00 0.00 0.00 0.00 0.00 0.00 0.00 0.00 0.01 0.01 0.01 0.01 0.01 0.00 0.00 0.01 0.00 0.00 0.00 0.00 0.00 0.00 0.00 0.00 0.00 0.00 0.00 0.00 0.00 0.00 0.00 0.00 0.00 0.00 0.00 0.00 0.00 0.00 0.00 0.00
0.00 0.00 0.00 0.00 0.00 0.00 0.00 0.00 0.00 0.00 0.00 0.01 0.00 0.00 0.00 0.01 0.00 0.00 0.00 0.00 0.00 0.00 0.00 0.00 0.00 0.00 0.00 0.00 0.00 0.00 0.00 0.00 0.00 0.00 0.00 0.00 0.00 0.00 0.00 0.00 0.00 0.00 0.00 0.00
0.01 0.00 0.00 0.00 0.00 0.00 0.00 0.00 0.00 0.00 0.01 0.01 0.03 0.02 0.00 0.00 0.01 0.00 0.00 0.00 0.00 0.00 0.00 0.00 0.00 0.00 0.00 0.00 0.00 0.00 0.00 0.00 0.00 0.00 0.00 0.00 0.00 0.00 0.00 0.00 0.00 0.00 0.00 0.00